FENGYUN 1C DEB, 37054

Orbit data source: Space-Track

FENGYUN 1C DEB, 37054 is space debris in SSO originally from a launch on Mon, 10 May 1999 UTC launched from the Taiyaun Space Center, China (TSC). Fengyun 1C debris stems from the Chinese weather satellite Fengyun-1C, which was intentionally destroyed by a Chinese anti-satellite missile in 2007. This event dramatically increased the amount of space debris, with thousands of trackable fragments posing hazards to satellites and human spaceflight. The Fengyun 1C debris cloud has become a focal point in discussions about space sustainability and the need for international regulations to prevent the creation of new debris.

Loading next visibility...
Identifier
37054, 1999-025EEN
Orbit
SSO
Country
Flag of CNCN / PRC
Related business
Manufacturer
Unknown
Mission
Spacecraft
Bus & Motor
Unknown
Mass
Unknown
Launch date (UTC)
1999-05-10 (27 years ago)
Launch vehicle
Unknown
Launch site
Taiyaun Space Center, China (TSC)
Object type
Payload
Rocket body
Debris
Shape & HBR
Unknown shape, 0.1 m
Radar Cross Section
Small (<0.1 m²)

Expand to show TLE details & history
Last TLE update: 2 days ago

TLE from 2 days ago
0 FENGYUN 1C DEB
1 37054U 99025EEN 26207.22413463  .00000425  00000-0  21005-3 0  9998
2 37054  98.5702 187.3260 0100064 172.5540 187.7151 14.19740132676285
Epoch: 2026-07-26T05:22Z
TLE epoch observation values (Epoch: 2026-07-26T05:22:45.232Z)
Latitude
0.00005°
Longitude
162.71239°
Altitude
900.615 km
Speed
7.365 km/s
True Right ascension
12h 29m 18s
True Declination
0° 00' 00"
Sunlit
Object was in daylight at epoch
Visualization orbit readout
Latitude
Unknown
Longitude
Unknown
Altitude
Unknown
Speed
Unknown
Apparent Right ascension
Unknown
Apparent Declination
Unknown
Sunlit
N/A
Visualization observer readout
Local Sidereal Time
20:35:58
Azimuth
Unknown
Elevation
Unknown
Doppler factor
Unknown
Orbital elements
Apogee altitude
895.445 km
Perigee altitude
751.322 km
Semi-major axis
7,201.521 km
Eccentricity
0.01001
Inclination
98.5702°
RAAN
187.326°
Arg. of periapsis
172.554°
True anomaly
187.56305°
Mean anomaly
187.7151°
Eccentric anomaly
187.63889°
Mean motion
3.55146 °/min
Orbital period
101.37 mins
BSTAR
0.00021005
Loading maneuver chart data...
Computing Atmospheric mass density...

Documentation

Showing up to 5 results
|